DB0TGO-13 Weather Reports


time (UTC)temp
C
wind
direction
speed
KPH
gust
KPH
rain 1hr
cm
rain 24hr
cm
rain mn
cm
humidity
%
barometer
mb
20260504050002 16 230 6.4 0.0 0.00 0.00 0.00 63 1005.9
20260504044502 16 230 1.6 0.0 0.00 0.00 0.00 63 1005.5
20260504043003 16 230 1.6 0.0 0.00 0.00 0.00 63 1005.5
20260504041502 16 250 1.6 0.0 0.00 0.00 0.00 61 1005.8
20260504040002 16 250 1.6 0.0 0.00 0.00 0.00 61 1005.8
20260504034502 17 250 4.8 0.0 0.00 0.00 0.00 52 1006.0
20260504033002 17 250 4.8 0.0 0.00 0.00 0.00 52 1006.0
20260504031502 17 240 4.8 0.0 0.00 0.00 0.00 51 1006.1
20260504030003 17 240 4.8 0.0 0.00 0.00 0.00 51 1006.1
20260503204502 22 290 8.0 0.0 0.00 0.00 0.00 37 1004.7
20260503203002 22 270 11.3 0.0 0.00 0.00 0.00 37 1004.7
20260503201502 21 210 3.2 0.0 0.00 0.00 0.00 40 1004.4
20260503200002 21 210 3.2 0.0 0.00 0.00 0.00 40 1004.4
20260503194502 21 210 3.2 0.0 0.00 0.00 0.00 43 1004.3
20260503193002 21 240 1.6 0.0 0.00 0.00 0.00 43 1004.3
20260503191502 23 200 3.2 0.0 0.00 0.00 0.00 32 1004.1
20260503190002 23 200 3.2 0.0 0.00 0.00 0.00 32 1004.1
20260503184502 25 200 3.2 0.0 0.00 0.00 0.00 29 1004.1
20260503183002 25 240 4.8 0.0 0.00 0.00 0.00 29 1004.1
20260503181502 26 240 4.8 0.0 0.00 0.00 0.00 26 1004.1
20260503180002 26 230 8.0 0.0 0.00 0.00 0.00 26 1004.1
20260503174502 26 230 8.0 0.0 0.00 0.00 0.00 24 1004.2
20260503173002 26 230 9.7 0.0 0.00 0.00 0.00 24 1004.2
20260503171502 27 220 11.3 0.0 0.00 0.00 0.00 24 1004.3
20260503081502 20 180 6.4 0.0 0.00 0.00 0.00 43 1008.0
20260503071502 16 200 6.4 0.0 0.00 0.00 0.00 46 1008.0